Showing default

COSMOS 1565, 15004

Orbit data source: Space-Track

COSMOS 1565, 15004 is a payload satellite owned by GUKOS (CIS) in LEO that was launched on Mon, 28 May 1984 UTC via a KOSMOS 11K65M launch vehicle from the Plesetsk Missile And Space Complex (PKMTR). Payload-class satellites include a variety of spacecraft equipped with specific instruments for various scientific and technological missions. These include communications satellites like Starlink; space stations such as the ISS; scientific satellites like the Hubble; Earth observation satellites from companies like Planet Labs, Umbra, and HawkEye 360; GPS; miniature CubeSats for education and research; and military/defense satellites.

Loading next visibility...
Identifier
15004, 1984-052G
Orbit
LEO
Last TLE update
14 hours ago
Origin
Manufacturer
NPO PM
Mission
Defense Communications
Bus & Motor
STRELA-1 11F625, Unknown motor
Mass
60 kg wet, 60 kg dry
Launch date (UTC)
1984-05-28 (41 years ago)
Launch vehicle
KOSMOS 11K65M
Launch site
Plesetsk Missile And Space Complex (PKMTR)
Object type
Payload
Rocket body
Debris
Shape & HBR
Sphere, 0.8 m
Radar Cross Section
0.588 m², Medium (>0.1 m² and < 1m²)

Expand to show TLE details & history

TLE from 14 hours ago
0 COSMOS 1565
1 15004U 84052G   25183.52809137 -.00000020  00000-0 -25737-4 0  9995
2 15004  74.0097 215.5223 0043256  34.0845  80.1489 12.55456436883261
Epoch: 2025-07-02T12:40Z
TLE epoch observation values (Epoch: 2025-07-02T12:40:27.094Z)
Latitude
60.92849°
Longitude
-106.25679°
Altitude
1,446.132 km
Speed
7.147 km/s
True Right ascension
00h 18m 39s
True Declination
60° 47' 42"
Sunlit
Object was in daylight at epoch
Visualization orbit readout
Latitude
-48.14879°
Longitude
85.23045°
Altitude
1,456.135 km
Speed
7.135 km/s
Apparent Right ascension
08h 29m 47s
Apparent Declination
-76° 35' 21"
Sunlit
Object is in daylight
Visualization observer readout
Local Sidereal Time
14:51:07
Azimuth
197.504° SSW
Elevation
-39.844°
Doppler factor
1
Orbital elements
Apogee altitude
1,473.401 km
Perigee altitude
1,405.769 km
Semi-major axis
7,817.722 km
Eccentricity
0.00433
Inclination
74.0097°
RAAN
215.5223°
Arg. of periapsis
34.0845°
True anomaly
Unknown
Mean anomaly
80.1489°
Eccentric anomaly
Unknown
Mean motion
3.13995 °/min
Orbital period
114.65 mins
BSTAR
-0.000025737
Loading maneuver chart data...
Loading SW <> Apogee altitude chart data...
Loading historical data...
Loading historical data...
Loading historical data...
Loading historical data...
Loading historical data...
Loading historical data...
Loading historical data...

COSMOS 1565 Visibility forecast

Observer location: undefined°, undefined°

Span
Click to sort rows by Start time (UTC) header in descending order
Start Az.
Max El. time (UTC)
Max El. Az.
Max El.
End time (UTC)
End Az.
16 mins2025-07-03 03:26:59.463Z200.008° SSW2025-07-03 03:34:59.463Z241.933° WSW44.621°2025-07-03 03:42:59.463Z17.543° NNE
9 mins2025-07-03 05:29:59.463Z279.825° WNW2025-07-03 05:33:59.463Z312.716° NW17.898°2025-07-03 05:38:59.463Z351.06° N
10 mins2025-07-03 11:36:59.463Z13.921° NNE2025-07-03 11:40:59.463Z47.163° ENE20.839°2025-07-03 11:46:59.463Z95.742° ESE
15 mins2025-07-03 13:32:59.463Z339.395° N2025-07-03 13:39:59.463Z202.253° SSW44.707°2025-07-03 13:47:59.463Z166.313° S
7 mins2025-07-03 15:31:59.463Z296.241° NW2025-07-03 15:34:59.463Z273.973° WNW14.892°2025-07-03 15:38:59.463Z244.371° WSW
14 mins2025-07-04 02:24:59.463Z166.115° S2025-07-04 02:30:59.463Z108.34° ESE36.23°2025-07-04 02:38:59.463Z30.781° NE
|